Location: Lane
(33.5226°N, 79.8788°W)
Time: 18:39:53
(UTC+00:00)

Courier 1B Rocket - Pass Details

Date: 14 October 2022
Orbit: 920 x 1202 km, 28.3° (Epoch: 01 December)

Event Time Altitude Azimuth Distance (km) Brightness Sun altitude
Rises 22:51:55 0° 270° (W) 4,030 10.8 -1.8°
Reaches altitude 10° 22:54:54 10° 264° (W) 3,035 9.7 -2.5°
Maximum altitude 23:02:01 48° 193° (SSW) 1,399 6.1 -3.9°
Drops below altitude 10° 23:08:39 10° 121° (ESE) 2,836 7.0 -5.3°
Enters shadow 23:11:11 - 116° (ESE) 3,681 7.5 -5.8°
Sets 23:11:22 0° 116° (ESE) 3,744 - -5.9°
